Hourly Data Report for March 23, 2021

KUGAARUK CLIMATE
NUNAVUT
Current Station Operator: ECCC - MSC

68°32'15.060" N
89°47'47.020" W
15.80 m
2303094
71407
NBB

Download Data

Hourly Data (March 2021)
Hourly Data Report for March 23, 2021
TIME
LST
Temp Definition
°C
Dew Point Definition
°C
Rel Hum Definition
%
Precip. Amount Definition
mm

Wind Dir Definition
10's deg

Wind Spd Definition
km/h
Visibility Definition
km
Stn Press Definition
kPa
Hmdx Definition


Wind Chill Definition


Weather Definition


00:00 -30.0 -33.2 74 0.0 28 24   101.71   -44 LegendNANA
01:00 -29.6 -32.8 73 0.0 25 28   101.70   -45 LegendNANA
02:00 -30.1 -33.3 73 0.0 27 25   101.71   -45 LegendNANA
03:00 -30.3 -33.5 73 0.0 25 22   101.75   -44 LegendNANA
04:00 -30.2 -33.4 73 0.0 26 24   101.76   -44 LegendNANA
05:00 -30.8 -34.2 72 0.0 28 21   101.79   -44 LegendNANA
06:00 -31.4 -34.9 71 0.0 26 14   101.83   -43 LegendNANA
07:00 -31.4 -35.1 70 0.0 29 20   101.86   -45 LegendNANA
08:00 -31.4 -35.3 68 0.0 25 13   101.86   -42 LegendNANA
09:00 -30.9 -35.0 68 0.0 27 31   101.85   -47 LegendNANA
10:00 -30.5 -34.6 67 0.0 27 28   101.89   -46 LegendNANA
11:00 -30.0 -34.1 68 0.0 28 36   101.86   -47 LegendNANA
12:00 -29.6 -33.5 69 0.0 27 28   101.90   -45 LegendNANA
13:00 -29.0 -32.7 70 0.0 27 24   101.90   -43 LegendNANA
14:00 -28.8 -32.5 70 0.0 25 30   101.87   -44 LegendNANA
15:00 -28.8 -32.2 72 0.0 27 36   101.91   -45 LegendNANA
16:00 -28.2 -31.5 73 0.0 27 24   101.97   -42 LegendNANA
17:00 -28.9 -32.1 74 0.0 27 25   102.00   -43 LegendNANA
18:00 -29.4 -32.5 74 0.0 25 26   101.99   -44 LegendNANA
19:00 -29.5 -32.7 74 0.0 27 25   102.00   -44 LegendNANA
20:00 -30.0 -33.3 73 0.0 25 28   101.97   -45 LegendNANA
21:00 -29.9 -33.2 73 0.0 25 21   101.98   -43 LegendNANA
22:00 -29.9 -33.1 73 0.0 23 26   101.99   -45 LegendNANA
23:00 -29.2 -32.6 72 0.0 26 34   101.94   -45 LegendNANA

Notes on Data Quality.

Legend

  • E = Estimated
  • M = Missing
  • NA = Not Available*
  • [empty] = Indicates an unobserved value
Date modified: